Regional Weather Roundup
Issued by NWS

Home | Current Version | Previous Version | Text Only | Print | Product List | Glossary Off
Versions: 1 2 3 4 5 6 7 8 9 10 11 12 13 14 15 16 17 18 19 20 21 22 23 24 25 26 27

000
ASUS45 KSLC 191510
RWRUT

UTAH REGIONAL WEATHER ROUNDUP
NATIONAL WEATHER SERVICE SALT LAKE CITY UT
800 AM MST SUN NOV 19 2017

UTZ001>011-023>025-191600-

NORTHERN UTAH

CITY           SKY/WX    TMP DP  RH WIND       PRES   REMARKS
BRIGHAM CITY   PTCLDY    26  23  88 CALM      30.30R
HILL AFB       MOCLDY    25  16  69 E16       30.26S WCI  12
LOGAN          PTCLDY    22  17  81 CALM      30.28S
OGDEN          MOCLDY    26  18  71 S8        30.27S WCI  18
SALT LAKE CITY MOCLDY    31  23  72 SE3       30.28R
TOOELE VALLEY  PTCLDY    27  23  86 S9        30.28S WCI  17
WENDOVER       CLOUDY    25  21  85 CALM      30.29R
HEBER CITY       N/A     19  16  86 CALM      30.27S
WEST JORDAN    PTCLDY    28  24  84 CALM      30.28S

$$

UTZ011>015-024>027-191600-

CENTRAL/NORTHEAST UTAH

CITY           SKY/WX    TMP DP  RH WIND       PRES   REMARKS
PROVO AIRPORT  MOCLDY    25  19  78 SE5       30.30S WCI  19
MOAB/CANYONLAN CLOUDY    24   7  48 CALM      30.36R
DELTA          CLOUDY    18  14  86 NE3       30.29R
PRICE          MOCLDY    21   6  52 CALM      30.33R
RICHFIELD      CLEAR     18  18 100 CALM      30.32S
ROOSEVELT      CLOUDY    19  12  73 CALM      30.37S
VERNAL         CLOUDY    20  11  68 W3        30.34S

$$

UTZ013>016-019>022-027-191600-

SOUTHERN UTAH

CITY           SKY/WX    TMP DP  RH WIND       PRES   REMARKS
BRYCE CANYON   PTCLDY    10   4  76 W5        30.31S WCI   2
CEDAR CITY     MOCLDY    17  14  88 CALM      30.25R
MILFORD        CLOUDY    16  12  84 S6        30.28R WCI   7
ST GEORGE      PTSUNNY   31  10  41 CALM      30.29R
HANKSVILLE     CLOUDY    18   1  49 CALM      30.41R
KANAB          CLEAR     30   9  40 N14       30.33R WCI  20
BLANDING         N/A     24   7  49 NW6       30.41S WCI  16

$$

REGIONAL REPORTS     COLORADO/ARIZONA

CITY           SKY/WX    TMP DP  RH WIND       PRES   REMARKS
CRAIG, CO      CLOUDY    10   6  84 SW5       30.32S WCI   2
GRAND JUNCTION CLOUDY    20  15  81 E3        30.38R
RIFLE, CO      CLOUDY    18  14  84 CALM      30.40R
MONTROSE, CO   CLOUDY    20  14  77 SE6       30.40R WCI  12
CORTEZ, CO     CLOUDY    16  10  77 NE5       30.36R WCI   9
COLORADO CITY    N/A     28   9  43 S5        30.29R WCI  23
PAGE, AZ       MOCLDY    31   6  35 CALM      30.34R
GRAND CANYON   PTCLDY    32   1  26 E5        30.29R WCI  27
KINGMAN, AZ    PTCLDY    31   7  36 E7        30.20R WCI  24
FLAGSTAFF, AZ  MOCLDY    17   3  54 CALM      30.29R

$$

REGIONAL REPORTS    NEVADA/IDAHO/WYOMING

CITY           SKY/WX    TMP DP  RH WIND       PRES   REMARKS
LAS VEGAS, NV  PTCLDY    41  12  30 W3        30.21R
ELY, NY        PTCLDY    11   0  61 S13       30.25R WCI  -4
ELKO, NV       PTCLDY    19  14  81 CALM      30.25R
POCATELLO, ID  CLOUDY    22  20  92 VRB3      30.25R
BURLEY, ID     CLEAR     25  20  81 NE7       30.21S WCI  17
FORT BRIDGER,    N/A     12  12 100 CALM      30.26S
EVANSTON, WY   CLOUDY    20  13  74 SE3       30.22S
ROCK SPRINGS,  CLOUDY    15   9  76 NW5       30.23F WCI   8

$$




USA.gov is the U.S. government's official web portal to all federal, state and local government web resources and services.